When you browse on this site, cookies collect data to enhance your experience and personalize the content and advertising you see.
Visit our Privacy Policy to learn more. By continuing to use the site, you agree to this use of cookies and data.
  • In Österreich
  • Länderverzeichnis
  • Für 7 Tage
  • Wassertemperatur
  • Satellitenkarten
  • Wetterkarte
  • News
  • Widgets
  • user-avatar
    Anmelden

    Stündliche Wetter Kumamoto

    Heute, 19 Februar, Dienstag

    Zeit Temperatur Niederschläge Wind Luftdruck Luftfeuchtigkeit
    00:00 +12°C° 0.3 mm 1 m/S 765 mmHg 81%
    01:00 +12°C° 0.9 mm 1 m/S 765 mmHg 83%
    02:00 +12°C° 0.9 mm 1 m/S 764 mmHg 85%
    03:00 +12°C° 0 mm 1 m/S 764 mmHg 88%
    04:00 +12°C° 1.2 mm 1 m/S 763 mmHg 87%
    05:00 +13°C° 1.2 mm 2 m/S 762 mmHg 87%
    06:00 +13°C° 1.2 mm 2 m/S 761 mmHg 87%
    07:00 +13°C° 1.1 mm 2 m/S 761 mmHg 87%
    08:00 +14°C° 1.1 mm 2 m/S 760 mmHg 87%
    09:00 +14°C° 0 mm 4 m/S 759 mmHg 89%
    10:00 +14°C° 4.8 mm 4 m/S 759 mmHg 91%
    11:00 +16°C° 4.8 mm 3 m/S 759 mmHg 93%
    12:00 +16°C° 4.8 mm 3 m/S 758 mmHg 95%
    13:00 +17°C° 1.6 mm 4 m/S 758 mmHg 93%
    14:00 +18°C° 1.6 mm 4 m/S 758 mmHg 90%
    15:00 +19°C° 0 mm 4 m/S 758 mmHg 88%
    16:00 +18°C° 0.1 mm 4 m/S 759 mmHg 88%
    17:00 +18°C° 0.1 mm 3 m/S 759 mmHg 89%
    18:00 +17°C° 0.1 mm 3 m/S 760 mmHg 90%
    19:00 +17°C° 0 mm 3 m/S 760 mmHg 89%
    20:00 +16°C° 0 mm 3 m/S 761 mmHg 89%
    21:00 +16°C° 0 mm 3 m/S 762 mmHg 89%
    22:00 +14°C° 0 mm 3 m/S 762 mmHg 87%
    23:00 +14°C° 0 mm 3 m/S 762 mmHg 86%

    Morgen, 20 Februar, Mittwoch

    Zeit Temperatur Niederschläge Wind Luftdruck Luftfeuchtigkeit
    00:00 +13°C° 0 mm 3 m/S 763 mmHg 85%
    01:00 +14°C° 0 mm 2 m/S 763 mmHg 85%
    02:00 +13°C° 0 mm 2 m/S 763 mmHg 85%
    03:00 +13°C° 0 mm 2 m/S 763 mmHg 86%
    04:00 +13°C° 0 mm 2 m/S 763 mmHg 85%
    05:00 +11°C° 0 mm 3 m/S 763 mmHg 84%
    06:00 +11°C° 0 mm 3 m/S 764 mmHg 83%
    07:00 +11°C° 0 mm 3 m/S 764 mmHg 81%
    08:00 +11°C° 0 mm 3 m/S 765 mmHg 79%
    09:00 +11°C° 0 mm 3 m/S 765 mmHg 78%
    10:00 +11°C° 0 mm 3 m/S 765 mmHg 74%
    11:00 +11°C° 0 mm 3 m/S 765 mmHg 71%
    12:00 +12°C° 0 mm 3 m/S 765 mmHg 67%
    13:00 +12°C° 0 mm 3 m/S 765 mmHg 65%
    14:00 +12°C° 0 mm 3 m/S 765 mmHg 63%
    15:00 +12°C° 0 mm 3 m/S 765 mmHg 60%
    16:00 +13°C° 0 mm 2 m/S 765 mmHg 62%
    17:00 +12°C° 0 mm 2 m/S 765 mmHg 63%
    18:00 +10°C° 0 mm 2 m/S 766 mmHg 65%
    19:00 +10°C° 0 mm 2 m/S 766 mmHg 67%
    20:00 +10°C° 0 mm 1 m/S 766 mmHg 69%
    21:00 +9°C° 0 mm 1 m/S 767 mmHg 72%
    22:00 +9°C° 0 mm 1 m/S 767 mmHg 73%
    23:00 +9°C° 0 mm 1 m/S 767 mmHg 73%

    übermorgen, 21 Februar, Donnerstag

    Zeit Temperatur Niederschläge Wind Luftdruck Luftfeuchtigkeit
    00:00 +8°C° 0 mm 1 m/S 767 mmHg 74%
    01:00 +8°C° 0 mm 1 m/S 767 mmHg 73%
    02:00 +8°C° 0 mm 1 m/S 767 mmHg 72%
    03:00 +7°C° 0 mm 1 m/S 767 mmHg 71%
    04:00 +8°C° 0 mm 1 m/S 766 mmHg 68%
    05:00 +7°C° 0 mm 2 m/S 766 mmHg 65%
    06:00 +7°C° 0 mm 2 m/S 766 mmHg 62%
    07:00 +8°C° 0 mm 2 m/S 766 mmHg 59%
    08:00 +9°C° 0 mm 2 m/S 767 mmHg 56%
    09:00 +9°C° 0 mm 2 m/S 767 mmHg 53%
    10:00 +12°C° 0 mm 2 m/S 767 mmHg 47%
    11:00 +13°C° 0 mm 2 m/S 767 mmHg 42%
    12:00 +15°C° 0 mm 2 m/S 767 mmHg 36%
    13:00 +15°C° 0 mm 2 m/S 766 mmHg 35%
    14:00 +15°C° 0 mm 2 m/S 766 mmHg 34%
    15:00 +16°C° 0 mm 2 m/S 765 mmHg 32%
    16:00 +15°C° 0 mm 2 m/S 765 mmHg 37%
    17:00 +14°C° 0 mm 2 m/S 765 mmHg 41%
    18:00 +13°C° 0 mm 2 m/S 765 mmHg 45%
    19:00 +12°C° 0 mm 2 m/S 766 mmHg 49%
    20:00 +10°C° 0 mm 2 m/S 766 mmHg 54%
    21:00 +10°C° 0 mm 2 m/S 766 mmHg 58%
    22:00 +9°C° 0 mm 2 m/S 766 mmHg 60%
    23:00 +9°C° 0 mm 2 m/S 766 mmHg 63%

    22 Februar, Freitag

    Zeit Temperatur Niederschläge Wind Luftdruck Luftfeuchtigkeit
    00:00 +9°C° 0 mm 2 m/S 766 mmHg 65%
    01:00 +9°C° 0 mm 2 m/S 765 mmHg 66%
    02:00 +10°C° 0 mm 1 m/S 765 mmHg 66%
    03:00 +10°C° 0 mm 1 m/S 765 mmHg 67%
    04:00 +10°C° 0 mm 1 m/S 764 mmHg 67%
    05:00 +10°C° 0 mm 1 m/S 764 mmHg 67%
    06:00 +9°C° 0 mm 2 m/S 764 mmHg 67%
    07:00 +10°C° 0.1 mm 1 m/S 764 mmHg 66%
    08:00 +11°C° 0.1 mm 1 m/S 764 mmHg 65%
    09:00 +12°C° 0.1 mm 1 m/S 764 mmHg 64%
    10:00 +12°C° 0.5 mm 2 m/S 763 mmHg 66%
    11:00 +12°C° 0.5 mm 2 m/S 763 mmHg 68%
    12:00 +13°C° 0.5 mm 2 m/S 762 mmHg 70%
    13:00 +12°C° 2 mm 2 m/S 761 mmHg 74%
    14:00 +12°C° 2 mm 1 m/S 760 mmHg 78%
    15:00 +12°C° 2 mm 1 m/S 759 mmHg 82%
    16:00 +10°C° 4.1 mm 2 m/S 759 mmHg 84%
    17:00 +10°C° 4.1 mm 2 m/S 758 mmHg 86%
    18:00 +10°C° 4.1 mm 2 m/S 758 mmHg 88%
    19:00 +10°C° 1.7 mm 2 m/S 758 mmHg 87%
    20:00 +10°C° 1.7 mm 2 m/S 758 mmHg 87%
    21:00 +10°C° 1.7 mm 2 m/S 758 mmHg 87%
    22:00 +10°C° 0.2 mm 2 m/S 758 mmHg 87%
    23:00 +10°C° 0.2 mm 2 m/S 758 mmHg 87%

    23 Februar, Samstag

    Zeit Temperatur Niederschläge Wind Luftdruck Luftfeuchtigkeit
    00:00 +10°C° 0.2 mm 2 m/S 759 mmHg 87%
    01:00 +9°C° 0.4 mm 2 m/S 758 mmHg 88%
    02:00 +9°C° 0.4 mm 2 m/S 758 mmHg 88%
    03:00 +9°C° 0.4 mm 3 m/S 758 mmHg 89%
    04:00 +9°C° 0.1 mm 3 m/S 758 mmHg 88%
    05:00 +9°C° 0.1 mm 2 m/S 758 mmHg 87%
    06:00 +8°C° 0.1 mm 2 m/S 758 mmHg 85%
    07:00 +9°C° 0 mm 2 m/S 759 mmHg 81%
    08:00 +9°C° 0 mm 2 m/S 759 mmHg 78%
    09:00 +11°C° 0 mm 1 m/S 760 mmHg 74%
    10:00 +10°C° 0.2 mm 2 m/S 760 mmHg 71%
    11:00 +12°C° 0.2 mm 2 m/S 760 mmHg 68%
    12:00 +13°C° 0.2 mm 2 m/S 760 mmHg 65%
    13:00 +13°C° 0.2 mm 2 m/S 760 mmHg 61%
    14:00 +13°C° 0.2 mm 3 m/S 760 mmHg 57%
    15:00 +13°C° 0.2 mm 3 m/S 760 mmHg 53%
    16:00 +12°C° 0 mm 3 m/S 760 mmHg 54%
    17:00 +12°C° 0 mm 3 m/S 761 mmHg 55%
    18:00 +11°C° 0 mm 4 m/S 761 mmHg 56%
    19:00 +10°C° 0 mm 4 m/S 762 mmHg 60%
    20:00 +9°C° 0 mm 3 m/S 763 mmHg 64%
    21:00 +8°C° 0 mm 3 m/S 763 mmHg 68%
    22:00 +7°C° 0 mm 3 m/S 764 mmHg 68%
    23:00 +7°C° 0 mm 3 m/S 764 mmHg 69%

    24 Februar, Sonntag

    Zeit Temperatur Niederschläge Wind Luftdruck Luftfeuchtigkeit
    00:00 +5°C° 0 mm 3 m/S 765 mmHg 69%
    01:00 +5°C° 0 mm 3 m/S 765 mmHg 69%
    02:00 +5°C° 0 mm 3 m/S 765 mmHg 69%
    03:00 +6°C° 0 mm 2 m/S 765 mmHg 69%
    04:00 +5°C° 0 mm 2 m/S 765 mmHg 69%
    05:00 +5°C° 0 mm 2 m/S 766 mmHg 69%
    06:00 +5°C° 0 mm 2 m/S 766 mmHg 69%
    07:00 +6°C° 0 mm 2 m/S 766 mmHg 64%
    08:00 +7°C° 0 mm 2 m/S 766 mmHg 59%
    09:00 +8°C° 0 mm 2 m/S 767 mmHg 54%
    10:00 +10°C° 0 mm 2 m/S 766 mmHg 47%
    11:00 +13°C° 0 mm 2 m/S 766 mmHg 39%
    12:00 +15°C° 0 mm 1 m/S 766 mmHg 32%
    13:00 +15°C° 0 mm 2 m/S 766 mmHg 32%
    14:00 +16°C° 0 mm 2 m/S 765 mmHg 33%
    15:00 +16°C° 0 mm 2 m/S 765 mmHg 34%
    16:00 +15°C° 0 mm 2 m/S 765 mmHg 39%
    17:00 +14°C° 0 mm 2 m/S 765 mmHg 43%
    18:00 +13°C° 0 mm 1 m/S 765 mmHg 48%
    19:00 +12°C° 0 mm 1 m/S 765 mmHg 52%
    20:00 +11°C° 0 mm 1 m/S 766 mmHg 56%
    21:00 +10°C° 0 mm 1 m/S 766 mmHg 61%
    22:00 +10°C° 0 mm 1 m/S 766 mmHg 62%
    23:00 +10°C° 0 mm 1 m/S 766 mmHg 64%
    Mehr zeigen